sat.trackr.live / text

‹ back to catalog

STARLINK-30702

NORAD 57955 · 2023-148W

PAYLOAD ACTIVE UNKNOWN

§ Identity

Operator
Country
US
Launch date
2023-09-25
Launch site
AFWTR
Launch vehicle
Mass (kg)
RCS (m²)

Purposes: comms

External: N2YO · Heavens-Above · Gunter

§ Orbital elements

Epoch: 2026-05-25T01:14:56.746752Z

Period
94.11 min
Inclination
53.1620°
Eccentricity
0.0001322
Mean motion
15.30194284 rev/d
Perigee alt
474.3 km
Apogee alt
476.1 km
Semi-major
6,853.4 km
B*
3.5978e-5
RAAN
19.5145°
Arg perigee
85.1301°
Mean anomaly
274.9850°
Rev number
15,025

§ Raw data

STARLINK-307021 57955U 23148W   26145.05204568  .00000706  00000+0  35978-4 0  99952 57955  53.1620  19.5145 0001322  85.1301 274.9850 15.30194284150256

JSON: /api/v1/satellites/57955 · /tle

For live sub-satellite position, see the globe view (requires WebGL).

§ Visibility from observer

Set your observer location to see the next 7 days of passes ≥ 10°. The values pass through the URL so the page stays shareable.

No JS? Fill the form by hand. The geolocation button needs JavaScript.